Main page
METAR-TAF:

METAR-TAF

Airports :

Jumandy Airport

Tena, Ecuador

latitude: 01-03-35S, longitude: 77-35-00W, elevation: 376 m

Current weather observation

The report was made 19 minutes ago, at 14:00 UTC
Wind 3 kt from the West/Southwest
Temperature 23°C
Humidity 83%
Pressure 1021 hPa
Visibility 10 km or more
Few clouds at a height of 2000 ft
Broken clouds at a height of 10000 ft

METAR: SEJD 171400Z 24003KT 9999 FEW020 BKN100 23/20 Q1021 RMK A3015

Time: 09:19 (14:19 UTC)


TAF: missing

Weather observations and forecasts of more than 4000 airports (METAR and TAF reports).

The available stations are represented by yellow and red dots on the map.

Hover mouse over dot to see the name of the station.

Then click to see weather observations and forecasts.

To change the map : click on the green buttons with a black cross to zoom in, on the green button with a dash to zoom out, or on the green arrows for adjacent maps.


METAR-TAF: